Weather Roundup
Issued by NWS Springfield, MO

Home | Current Version | Previous Version | Text Only | Print | Product List | Glossary On
Versions: 1 2 3 4 5 6 7 8 9 10 11 12 13 14 15 16 17 18 19 20 21 22 23 24 25 26 27 28 29 30 31 32 33 34 35 36 37 38 39 40 41 42 43 44 45 46 47 48 49 50
000
NZUS99 KSGF 230007
HRRSGF

HOURLY WEATHER
NATIONAL WEATHER SERVICE SPRINGFIELD MO
700 PM CDT FRI AUG 22 2014

......SGF CWA......

CITY           SKY/WX    TMP DP  RH WIND       PRES   REMARKS
SPRINGFIELD    MOSUNNY   94  66  39 SW8       29.96R HX  97
6HR MIN TEMP:  94; 6HR MAX TEMP: 100;

JOPLIN         SUNNY     94  68  42 SW12      29.94F HX  98
6HR MIN TEMP:  94; 6HR MAX TEMP:  99;

WEST PLAINS    MOCLDY    89  68  49 S5        29.98F HX  93
6HR MIN TEMP:  89; 6HR MAX TEMP:  95;

ROLLA          MOCLDY    89  71  55 S6        29.93S HX  95
6HR MIN TEMP:  89; 6HR MAX TEMP:  96;

OSAGE BEACH    PTCLDY    93  73  52 SE3       29.91F HX 102
BRANSON        PTCLDY    95  68  41 SW8       29.99R HX  99

......SURROUNDING SGF CWA......

CITY           SKY/WX    TMP DP  RH WIND       PRES   REMARKS
CHANUTE        MOSUNNY   85  67  54 S8        29.89F
PARSONS        MOSUNNY   90  68  48 CALM      29.91F HX  94
COFFEYVILLE    MOSUNNY   94  73  50 S12       29.89F HX 103
EMPORIA        CLOUDY    76  66  71 SE7       29.87F
GROVE OK       SUNNY     93  72  49 S7        29.95S HX 100
ROGERS AR      SUNNY     91  68  46 SW13      30.00R HX  95
SILOAM SPRINGS SUNNY     90  70  51 S8        29.98S HX  95
HARRISON AR    CLEAR     88  73  61 S6        30.00R HX  95
NEAR YELLVILLE   N/A     93  70  46 S9G16     29.97R HX  99

......KANSAS AND MISSOURI......

CITY           SKY/WX    TMP DP  RH WIND       PRES   REMARKS
KANSAS CTY INT PTSUNNY   89  76  65 SE8       29.90F HX 100
DOWNTOWN KC    CLOUDY    92  75  57 SE8       29.88F HX 103
COLUMBIA       MOCLDY    93  77  59 CALM      29.92S HX 107
SEDALIA        MOSUNNY   90  76  63 SW3       29.93S HX 101
ST JOSEPH      PTSUNNY   84  78  82 SE6       29.88F HX  95
ST LOUIS       MOCLDY    91  76  61 S6        29.92F HX 103
SPIRIT OF STL  MOCLDY    89  78  70 CALM      29.90F HX 103
KIRKSVILLE     CLOUDY    86  78  77 CALM      29.94S HX  98
WICHITA        MOSUNNY   96  67  38 SE16G26   29.86R HX 100
TOPEKA         CLOUDY    89  71  55 S8        29.87F HX  95
OLATHE         CLOUDY    80  68  66 S15       29.92R

......TENNESSEE......

CITY           SKY/WX    TMP DP  RH WIND       PRES   REMARKS
MEMPHIS        PTCLDY    90  74  59 SW9       29.98F HX  99
NASHVILLE      PTCLDY    88  72  58 SW3       29.98F HX  94

......ARKANSAS.......

CITY           SKY/WX    TMP DP  RH WIND       PRES   REMARKS
FAYETTEVILLE   SUNNY     89  72  56 SW9       29.99S HX  96
FT SMITH       MOSUNNY   94  73  50 S8        29.94S HX 103
LITTLE ROCK    PTCLDY    89  74  60 S12       29.97F HX  98

......OKLAHOMA.......

CITY           SKY/WX    TMP DP  RH WIND       PRES   REMARKS
TULSA          MOSUNNY   97  70  41 S20G25    29.88S HX 103
PONCA CITY     SUNNY     98  66  34 S8        29.87R HX 101
MCALESTER      SUNNY     91  70  49 S6        29.95F HX  96
OKLAHOMA CITY  SUNNY     96  61  31 S16G23    29.90S HX  96

......IOWA............

CITY           SKY/WX    TMP DP  RH WIND       PRES   REMARKS
DES MOINES     CLOUDY    83  75  77 SW7       29.91S HX  90
QUAD CITIES    MOCLDY    84  75  74 S3        29.93R HX  92

......ILLINOIS........

CITY           SKY/WX    TMP DP  RH WIND       PRES   REMARKS
QUINCY         MOCLDY    86  78  77 CALM      29.92S HX  98
CHICAGO        MOCLDY    82  72  71 W6        29.94R




USA.gov is the U.S. government's official web portal to all federal, state and local government web resources and services.